TimeMST,TemperatureF,Dew PointF,Humidity,Sea Level PressureIn,VisibilityMPH,Wind Direction,Wind SpeedMPH,Gust SpeedMPH,PrecipitationIn,Events,Conditions,WindDirDegrees,DateUTC
12:52 AM,21.9,18.0,85,30.20,10.0,SSW,6.9,-,N/A,,Clear,200,2013-01-20 07:52:00
1:52 AM,25.0,19.9,81,30.17,10.0,West,5.8,-,N/A,,Clear,270,2013-01-20 08:52:00
2:52 AM,27.0,21.0,78,30.14,10.0,SSW,11.5,-,N/A,,Clear,210,2013-01-20 09:52:00
3:52 AM,28.0,21.0,75,30.13,10.0,SW,9.2,-,N/A,,Clear,230,2013-01-20 10:52:00
4:52 AM,25.0,19.0,78,30.16,10.0,WNW,6.9,-,N/A,,Clear,300,2013-01-20 11:52:00
5:52 AM,30.9,19.9,64,30.19,10.0,West,11.5,-,N/A,,Overcast,270,2013-01-20 12:52:00
6:52 AM,25.0,19.9,81,30.30,10.0,NNE,12.7,25.3,N/A,,Overcast,20,2013-01-20 13:52:00
7:03 AM,21.2,17.6,86,30.20,10.0,North,15.0,23.0,N/A,,Overcast,350,2013-01-20 14:03:00
7:11 AM,21.2,17.6,86,30.21,10.0,North,11.5,20.7,N/A,,Overcast,360,2013-01-20 14:11:00
7:52 AM,17.1,14.0,88,30.40,7.0,NNE,13.8,21.9,N/A,,Overcast,20,2013-01-20 14:52:00
8:52 AM,17.1,12.9,84,30.45,10.0,Variable,4.6,-,N/A,,Overcast,0,2013-01-20 15:52:00
9:32 AM,15.8,10.4,79,30.35,10.0,ENE,6.9,-,N/A,,Overcast,60,2013-01-20 16:32:00
9:52 AM,17.1,10.9,77,30.50,10.0,NE,6.9,-,N/A,,Overcast,50,2013-01-20 16:52:00
10:11 AM,17.6,10.4,73,30.36,10.0,ENE,5.8,-,N/A,,Overcast,60,2013-01-20 17:11:00
10:23 AM,17.6,10.4,73,30.37,10.0,Calm,Calm,-,N/A,,Overcast,0,2013-01-20 17:23:00
10:52 AM,18.0,10.0,71,30.51,10.0,Calm,Calm,-,N/A,,Mostly Cloudy,0,2013-01-20 17:52:00
11:19 AM,17.6,10.4,73,30.35,10.0,SW,5.8,-,N/A,,Overcast,220,2013-01-20 18:19:00
11:52 AM,19.0,12.0,74,30.49,10.0,Calm,Calm,-,N/A,,Overcast,0,2013-01-20 18:52:00
12:18 PM,19.4,12.2,74,30.33,10.0,Calm,Calm,-,N/A,,Overcast,0,2013-01-20 19:18:00
12:52 PM,21.0,12.9,71,30.45,10.0,NNW,9.2,-,N/A,,Mostly Cloudy,340,2013-01-20 19:52:00
1:18 PM,21.2,12.2,68,30.31,10.0,WNW,8.1,-,N/A,,Overcast,300,2013-01-20 20:18:00
1:52 PM,21.0,12.9,71,30.44,10.0,WNW,6.9,-,N/A,,Overcast,300,2013-01-20 20:52:00
2:52 PM,21.0,14.0,74,30.43,10.0,NW,4.6,-,N/A,,Overcast,320,2013-01-20 21:52:00
3:52 PM,21.0,14.0,74,30.42,10.0,Calm,Calm,-,N/A,,Overcast,0,2013-01-20 22:52:00
4:52 PM,21.0,14.0,74,30.41,10.0,Calm,Calm,-,N/A,,Overcast,0,2013-01-20 23:52:00
5:52 PM,21.0,15.1,78,30.41,10.0,NW,3.5,-,N/A,,Overcast,320,2013-01-21 00:52:00
6:52 PM,19.9,12.0,71,30.43,10.0,NNE,10.4,-,N/A,,Overcast,30,2013-01-21 01:52:00
7:52 PM,19.0,10.0,68,30.47,10.0,NNE,5.8,-,N/A,,Overcast,20,2013-01-21 02:52:00
8:52 PM,17.1,9.0,71,30.48,10.0,North,4.6,-,N/A,,Overcast,10,2013-01-21 03:52:00
9:52 PM,16.0,8.1,71,30.48,10.0,North,5.8,-,N/A,,Overcast,10,2013-01-21 04:52:00
10:52 PM,16.0,8.1,71,30.47,10.0,NNE,8.1,-,N/A,,Overcast,30,2013-01-21 05:52:00
11:52 PM,15.1,8.1,74,30.46,10.0,North,5.8,-,N/A,,Overcast,10,2013-01-21 06:52:00